This is the latest recevied weather packets stored in our database for station/object DB0OHA-10. If no packets are shown the sender has not sent any weather packets the latest 1 day(s).
| Time | Temp. | Humidity | Pressure | Rain* | Wind** | Luminosity | Snow |
|---|---|---|---|---|---|---|---|
| 1778103010 | 9.44° C | 1% | 1006.9 hPa | 0.51 mm | - | 0 W/m² | - |
| 1778102110 | 9.44° C | 1% | 1006.7 hPa | 0.25 mm | - | 0 W/m² | - |
| 1778101210 | 10° C | 1% | 1006.7 hPa | 0.25 mm | - | 0 W/m² | - |
| 1778100310 | 10° C | 1% | 1006.7 hPa | 0 mm | - | 0 W/m² | - |
| 1778099410 | 10.56° C | 1% | 1006.5 hPa | 0 mm | - | 0 W/m² | - |
| 1778098510 | 10.56° C | 1% | 1006.3 hPa | 0 mm | - | 0 W/m² | - |
| 1778097610 | 10.56° C | 1% | 1006.2 hPa | 0 mm | - | 0 W/m² | - |
| 1778096710 | 10.56° C | 1% | 1006.2 hPa | 0 mm | - | 0 W/m² | - |
| 1778095926 | 11.11° C | 1% | 1006 hPa | 0 mm | - | 0 W/m² | - |
| 1778095810 | 11.11° C | 1% | 1006 hPa | 0 mm | - | 0 W/m² | - |
| 1778094910 | 11.11° C | 1% | 1005.8 hPa | 0 mm | - | 0 W/m² | - |
| 1778094010 | 11.11° C | 1% | 1005.6 hPa | 0 mm | - | 0 W/m² | - |
| 1778093110 | 11.11° C | 1% | 1005.5 hPa | 0 mm | - | 0 W/m² | - |
| 1778092210 | 11.11° C | 1% | 1005 hPa | 0 mm | - | 0 W/m² | - |
| 1778091310 | 11.11° C | 1% | 1005 hPa | 0 mm | - | 0 W/m² | - |
| 1778090410 | 11.67° C | 1% | 1004.9 hPa | 0 mm | - | 9 W/m² | - |
| 1778089515 | 11.67° C | 1% | 1004.8 hPa | 0 mm | - | 26 W/m² | - |
| 1778089510 | 11.67° C | 1% | 1004.8 hPa | 0 mm | - | 26 W/m² | - |
| 1778088610 | 11.67° C | 1% | 1004.9 hPa | 0 mm | - | 49 W/m² | - |
| 1778087710 | 12.22° C | 1% | 1004.8 hPa | 0 mm | - | 60 W/m² | - |
| 1778086810 | 12.22° C | 1% | 1004.8 hPa | 0 mm | - | 56 W/m² | - |
| 1778085910 | 12.78° C | 1% | 1004.6 hPa | 0 mm | - | 81 W/m² | - |
| 1778084110 | 13.89° C | 1% | 1004.3 hPa | 0 mm | - | 86 W/m² | - |
| 1778082310 | 13.89° C | 1% | 1004.3 hPa | 0 mm | - | 229 W/m² | - |
| 1778081410 | 14.44° C | 1% | 1004.4 hPa | 0 mm | - | 271 W/m² | - |
* Rain latest hour (hover to see other rain measurements)
** Current wind speed in m/s (hover to see current wind gust speed)